Dewpoint
37 36 36 36 37 38 37 37 37 37 38 39 40 41 42 44 44 43 45 45 47 48 49 49 49 50 50 52 54 55 57 61 63 63 63 64 65 63 64 62 59 62 63
37 36 35 35 36 36 36 36 36 37 37 37 38 40 42 42 42 42 43 43 44 46 46 47 48 48 49 50 51 52 53 54 60 61 61 57 59 61 60 59 59 60 62
36 35 35 35 35 36 36 36 36 36 37 38 38 38 38 38 38 39 40 41 42 43 43 45 46 47 47 48 48 49 51 51 52 59 59 56 55 54 56 57 59 60 61
35 35 36 36 36 36 36 37 36 36 36 38 37 38 37 36 37 38 38 39 40 41 41 42 42 44 45 46 47 48 50 50 50 51 59 60 55 51 50 56 58 60 60
37 36 36 35 35 35 34 35 36 35 36 37 37 37 37 36 36 36 37 37 38 38 39 39 40 41 42 43 44 45 46 48 50 50 50 53 57 58 56 51 54 57 58
35 35 35 35 35 35 35 35 35 34 36 35 35 35 35 36 35 35 34 34 35 36 37 37 38 39 40 41 42 43 44 46 47 49 51 50 51 51 53 53 51 50 54
35 34 34 34 34 34 34 34 34 33 34 34 34 34 34 34 33 34 33 33 33 34 34 35 36 37 38 39 40 41 42 44 46 47 48 50 51 51 52 53 52 49 49
35 34 33 33 32 32 32 32 32 32 33 33 33 33 33 33 33 33 32 33 33 33 33 34 35 36 36 37 38 39 41 43 43 44 45 48 50 51 52 50 52 51 49
34 33 33 32 31 31 31 31 31 31 32 32 32 32 32 32 31 31 31 31 32 31 32 33 34 34 34 35 36 37 38 39 41 42 43 44 46 49 52 52 53 53 51
33 32 31 30 30 30 31 31 30 31 31 31 31 31 31 30 31 30 30 30 30 30 31 32 32 32 33 33 34 35 37 37 38 40 42 43 44 46 48 53 53 54 53
33 31 29 28 29 30 30 30 30 30 31 31 30 30 30 30 29 29 29 29 30 30 30 30 31 31 31 32 32 32 33 33 34 35 37 39 38 39 41 48 54 54 54
31 28 27 27 28 28 28 29 29 30 30 30 30 30 29 29 29 29 28 28 29 29 28 29 30 30 30 30 31 30 31 31 31 31 33 33 33 34 36 37 41 46 55
28 27 26 26 26 27 27 28 29 28 28 28 28 28 27 27 27 27 27 27 28 27 27 27 28 28 29 29 30 30 29 29 30 30 30 30 31 31 33 35 38 41 43
27 26 25 26 26 26 27 27 28 27 26 25 24 25 24 24 24 24 24 25 25 25 25 26 26 27 27 27 28 29 29 28 29 30 29 29 30 31 31 34 35 36 37
26 25 25 25 25 26 26 27 27 26 25 24 23 23 21 22 22 22 22 23 23 22 22 23 23 24 23 25 26 28 28 27 27 28 28 29 29 30 29 30 32 31 32
25 25 24 25 25 25 25 26 25 23 22 21 20 21 21 21 21 22 22 22 21 22 21 22 22 21 19 21 24 26 26 26 25 25 26 27 27 28 29 28 28 29 28
27 24 25 25 26 25 26 25 24 22 20 19 19 20 22 21 21 21 21 21 21 21 21 21 21 21 20 20 21 23 25 25 25 24 24 24 25 26 28 29 29 27 28
26 25 26 25 26 27 27 25 22 21 20 20 19 20 20 21 21 20 20 21 21 21 20 19 20 20 20 18 19 21 23 24 23 24 23 24 24 24 25 25 26 28 28
27 28 26 26 27 27 26 25 22 20 19 20 20 20 20 20 20 20 20 20 20 19 19 18 18 18 18 16 16 19 22 22 21 22 22 20 21 21 21 23 24 24 26
28 27 27 27 27 27 26 24 22 21 21 21 20 18 19 19 19 20 19 19 19 19 18 18 17 17 17 15 14 17 17 18 17 18 19 16 17 17 18 21 21 20 22
26 26 26 25 25 26 25 23 22 22 22 21 20 19 18 18 19 19 19 18 18 17 17 17 17 16 16 15 14 12 14 16 15 14 15 15 13 14 15 16 18 18 21
25 25 24 24 23 22 22 22 22 23 23 21 20 19 19 18 19 18 18 18 17 16 16 15 16 16 16 14 13 12 11 12 13 12 13 13 10 11 11 14 14 15 17
24 24 23 22 20 18 18 19 20 21 21 20 19 18 18 18 16 16 16 15 16 14 13 13 13 13 13 14 12 11 11 10 12 11 9 9 9 9 10 9 10 13 16
23 22 21 20 19 18 17 17 17 16 15 14 15 14 13 13 13 11 11 12 12 13 12 12 12 12 11 11 11 11 11 10 10 10 10 9 8 8 9 10 11 12 12
22 20 20 19 18 16 17 16 14 13 12 12 12 12 11 10 11 12 13 11 12 11 11 12 12 10 10 9 9 9 9 8 8 9 9 9 8 8 8 7 8 8 9
21 19 19 17 16 16 16 15 13 12 10 10 11 11 10 9 7 6 10 11 11 10 9 9 9 11 8 7 7 6 6 6 5 7 7 6 6 4 4 4 4 6 5
Wind_Speed
10 12 13 13 12 14 16 18 18 20 18 17 13 7 11 9 9 10 12 12 12 13 13 11 11 10 11 14 13 14 15 18 17 15 18 19 18 17 13 14 17 24 25
8 10 12 12 13 13 15 16 18 19 18 14 13 8 8 6 6 10 11 14 14 13 14 13 12 12 11 14 15 14 15 16 14 9 9 6 7 13 19 17 24 35 27
7 9 12 14 15 17 17 15 15 15 15 15 12 10 5 4 8 9 10 13 14 15 14 15 14 14 12 12 14 12 13 17 17 15 14 6 11 14 13 21 25 31 28
5 7 9 13 15 16 15 14 15 15 14 14 12 12 11 8 10 10 10 11 13 13 15 16 16 14 13 12 13 13 13 12 16 18 14 26 23 17 17 18 23 30 30
5 7 9 11 13 13 14 16 15 16 15 14 13 11 9 11 8 10 10 13 13 14 14 17 16 15 13 13 14 15 14 14 14 16 18 19 22 22 22 21 15 19 22
1 6 7 8 9 11 12 11 12 13 15 16 16 15 13 10 10 11 10 13 12 14 13 17 15 15 14 13 15 15 14 14 15 15 15 18 15 19 22 27 26 26 19
2 4 5 7 10 12 13 12 13 13 14 15 15 16 17 16 15 16 16 14 15 15 15 16 17 16 16 16 15 15 14 13 15 16 15 15 17 20 23 23 25 25 25
4 3 5 7 9 10 12 13 13 14 15 14 15 14 16 15 14 14 14 13 13 13 17 17 16 16 16 16 15 14 13 14 14 16 16 16 16 18 20 26 25 27 26
5 1 2 4 6 8 9 11 13 13 14 14 13 15 16 15 15 13 11 11 11 13 14 15 16 17 16 16 17 14 16 16 16 17 16 16 15 17 19 21 25 25 28
6 2 2 4 5 6 7 9 10 12 13 13 13 13 14 14 14 13 13 13 12 13 14 15 15 18 17 17 17 15 14 17 15 15 17 15 17 14 18 21 25 27 27
8 4 1 2 4 6 7 8 10 10 11 12 12 13 13 14 13 12 13 13 12 13 13 16 16 19 19 20 17 18 18 17 18 18 17 16 19 16 15 17 19 25 22
8 4 2 2 4 4 6 7 9 10 11 11 11 13 13 13 12 13 13 13 12 13 16 17 18 20 20 20 19 20 19 19 20 20 19 20 20 19 18 15 18 16 20
10 6 4 3 3 4 6 7 8 9 9 10 10 11 12 12 13 13 13 13 14 16 18 19 21 22 22 22 19 19 19 19 19 20 20 22 23 21 20 18 16 16 17
12 7 5 5 4 5 6 6 7 8 9 10 10 11 12 12 13 13 13 13 13 16 18 18 20 22 24 24 21 20 20 20 20 20 20 23 27 25 23 19 18 18 18
14 10 7 6 6 5 6 6 7 8 9 9 10 11 11 11 12 12 13 13 15 17 17 18 20 21 25 24 24 19 20 22 23 24 23 22 29 29 25 20 20 20 17
14 11 10 9 7 6 7 7 7 8 8 10 10 11 11 12 13 13 14 14 14 17 17 19 20 24 24 31 26 21 19 21 22 25 24 23 28 30 25 26 22 21 20
17 15 13 10 9 8 8 8 8 8 9 9 10 10 10 12 13 13 13 14 15 16 17 19 19 23 27 33 28 23 19 19 22 24 26 25 26 31 25 22 21 21 23
19 16 14 12 10 9 8 7 8 9 9 10 11 11 11 11 11 14 15 15 14 16 17 18 20 20 24 32 30 21 17 17 19 21 25 25 26 31 29 24 23 21 21
18 15 14 12 10 9 9 9 9 8 10 10 11 11 11 12 13 14 15 15 14 15 17 18 20 22 23 32 31 21 16 17 19 19 21 26 26 34 34 26 25 23 25
18 17 13 12 11 9 10 11 9 10 11 10 9 10 12 13 13 13 14 14 12 15 14 17 19 20 22 29 32 26 18 18 18 18 19 29 28 32 33 27 26 26 27
20 18 15 13 12 11 11 12 10 10 8 10 11 11 11 13 12 12 13 13 15 14 16 15 17 20 21 24 30 30 22 18 17 18 20 22 29 29 31 30 27 26 22
20 17 16 14 13 13 13 13 11 9 9 9 11 11 11 10 11 12 12 14 14 15 14 15 15 17 19 25 26 26 25 22 17 19 18 19 26 26 29 28 31 30 24
19 17 16 15 12 11 11 12 12 10 10 10 10 9 9 9 10 12 13 13 14 14 14 15 15 16 18 18 23 23 22 22 16 16 19 21 23 25 24 30 31 27 25
19 17 17 15 14 11 11 11 10 9 8 8 8 8 9 9 11 10 12 14 14 13 14 14 15 15 17 19 20 19 18 17 17 15 17 19 20 21 21 23 24 23 23
16 16 15 15 14 13 12 9 9 8 8 8 7 6 7 7 9 13 13 12 14 14 13 13 12 16 17 19 18 21 20 18 17 16 18 22 23 24 24 23 23 23 24
16 15 15 15 14 13 12 9 8 7 7 7 6 6 6 6 6 6 9 13 12 14 15 17 16 12 16 18 17 16 21 21 19 18 20 22 23 24 24 25 25 24 25
Wind_Direction
36 35 31 27 24 29 29 26 21 18 18 16 12 5 5 11 24 21 15 12 5 0 341 330 321 316 301 298 294 283 274 264 261 262 253 235 217 207 173 198 260 272 255
22 23 26 30 31 29 27 26 24 20 21 14 2 356 352 0 12 12 9 9 2 1 354 349 340 331 323 312 305 296 284 272 267 245 247 265 252 249 245 235 227 243 245
13 12 17 24 26 27 25 27 27 23 19 9 9 356 3 5 13 10 8 357 1 3 358 352 345 334 332 318 311 307 301 283 267 271 243 227 249 251 228 232 225 233 238
45 31 23 20 16 15 12 19 19 19 21 18 15 13 6 2 5 1 7 358 360 1 1 351 342 331 330 322 320 316 307 291 280 272 267 266 273 257 249 220 222 229 231
41 31 20 14 14 10 8 8 5 13 16 13 18 15 5 360 356 358 3 13 357 358 359 346 338 327 326 322 318 313 310 306 289 274 279 283 270 265 261 260 233 235 234
52 38 24 21 12 9 14 13 7 13 10 15 13 9 4 8 358 6 354 20 4 355 349 343 331 328 326 325 316 306 300 295 289 287 278 273 275 268 260 256 255 256 247
85 38 22 12 9 7 4 8 10 14 15 16 16 9 3 7 1 14 11 6 4 348 347 339 339 331 331 326 314 308 301 296 290 285 282 277 271 268 273 282 272 257 251
137 56 13 4 6 1 6 5 5 10 13 13 14 7 14 7 8 5 3 4 2 341 348 345 337 337 333 326 320 312 308 303 299 292 288 290 278 270 269 263 268 271 262
174 164 10 8 7 359 12 9 8 12 14 12 13 16 13 11 8 7 13 9 12 356 353 347 346 348 341 337 333 327 326 320 312 305 295 292 282 280 272 265 266 261 259
182 198 15 14 11 17 14 20 20 20 13 13 20 18 18 19 11 10 14 15 14 9 4 358 0 360 356 352 348 342 339 336 330 319 317 302 295 293 297 255 260 253 257
185 190 113 29 36 29 22 24 29 29 20 20 24 26 22 25 21 17 19 20 18 18 15 15 10 10 7 6 3 1 1 354 352 349 341 339 339 331 320 321 267 264 253
179 170 136 62 47 37 35 35 36 35 30 27 28 27 26 29 21 25 24 26 24 24 26 23 19 18 17 16 14 13 6 9 6 360 2 359 349 341 335 329 314 329 272
183 175 149 105 63 56 46 49 44 43 42 40 37 35 33 30 23 22 25 24 22 27 27 26 23 20 20 18 18 19 17 16 13 9 7 2 356 351 343 336 335 328 321
186 176 150 118 97 77 65 58 60 52 47 43 37 37 31 25 28 20 22 27 26 29 30 28 27 24 22 20 15 21 23 26 21 16 13 7 4 358 353 350 355 347 337
179 170 157 141 124 102 92 73 58 56 50 49 42 39 33 32 32 29 28 28 31 30 29 29 29 29 28 20 14 18 24 25 22 21 15 13 8 6 8 7 4 3 357
174 164 150 152 132 127 101 90 75 64 61 53 48 43 38 36 32 31 34 33 31 32 30 29 29 28 27 19 19 17 24 26 24 20 15 13 13 5 7 12 17 22 14
168 165 161 154 142 135 108 94 85 80 73 62 54 49 44 43 37 33 38 36 36 35 32 31 30 31 25 18 18 19 25 27 24 21 15 12 10 11 4 7 9 16 21
163 162 158 153 146 138 121 95 92 87 81 72 61 53 50 50 43 40 40 37 35 38 37 31 27 31 23 20 18 14 27 22 28 23 20 16 11 13 8 10 10 9 10
150 149 153 151 142 134 126 117 95 94 85 73 64 54 52 47 43 40 39 35 36 36 37 35 29 26 25 20 20 19 23 17 27 23 24 18 15 12 13 14 10 7 6
142 142 141 139 131 126 127 117 108 94 83 74 69 64 57 52 46 43 42 40 40 41 38 37 31 28 23 19 23 21 20 22 19 22 20 20 18 16 17 18 12 9 359
143 145 140 132 126 125 119 116 109 97 99 90 73 62 56 61 50 53 47 44 45 42 38 35 34 29 25 20 22 24 23 16 20 18 14 16 14 17 19 21 19 11 358
147 145 139 134 135 134 127 117 108 108 97 89 79 66 58 57 55 51 49 47 41 41 35 32 30 27 20 20 17 20 25 18 25 21 12 8 12 15 19 20 15 14 12
149 149 145 140 134 138 134 123 129 129 122 103 90 76 66 60 56 52 46 44 42 38 31 27 27 24 21 18 15 16 17 20 22 19 15 13 17 18 19 18 16 15 13
155 153 147 142 135 129 123 120 124 128 118 105 93 86 69 60 49 55 52 45 36 33 33 27 24 22 22 17 16 15 17 20 19 16 20 17 19 23 18 17 17 18 12
151 153 149 142 138 134 125 122 125 121 112 105 98 92 82 71 75 58 39 50 50 37 35 28 34 23 23 17 19 22 20 18 15 16 21 20 18 16 15 15 15 14 9
149 144 141 140 137 132 125 119 113 119 122 112 96 76 77 68 60 76 92 62 50 51 42 42 34 38 33 19 17 18 23 21 19 28 26 23 19 17 14 11 9 10 8